STARLINK-5183, 54084

Orbit data source: Space-Track

STARLINK-5183, 54084 is a payload satellite owned by SpaceX/Seattle (US) in LEO that was launched on Thu, 20 Oct 2022 UTC via an FALCON 9 launch vehicle from the Air Force Eastern Test Range (AFETR). Payload-class satellites include a variety of spacecraft equipped with specific instruments for various scientific and technological missions. These include communications satellites like Starlink; space stations such as the ISS; scientific satellites like the Hubble; Earth observation satellites from companies like Planet Labs, Umbra, and HawkEye 360; GPS; miniature CubeSats for education and research; and military/defense satellites.

Loading next visibility...
Identifier
54084, 2022-136AK
Orbit
LEO
Country
Flag of USUS
Related business
Manufacturer
SpaceX/Seattle
Mission
Operational Commercial Communications
Bus & Motor
STARLINK, Unknown motor
Mass
305 kg wet, ~290 kg dry
Launch date (UTC)
2022-10-20 (3 years ago)
Launch vehicle
FALCON 9
Launch site
Air Force Eastern Test Range (AFETR)
Object type
Payload
Rocket body
Debris
Shape & HBR
Box + 1 Pan, 4.4 m
Radar Cross Section
13.562 m², Large (>1 m²)

Expand to show TLE details & history
Last TLE update: 20 hours ago

TLE from 20 hours ago
0 STARLINK-5183
1 54084U 22136AK  25260.68138794 -.00000683  00000-0 -24820-4 0  9995
2 54084  53.2191  30.9303 0001534  86.4628 273.6539 15.08837256160860
Epoch: 2025-09-17T16:21Z
TLE epoch observation values (Epoch: 2025-09-17T16:21:11.918Z)
Latitude
-0.00005°
Longitude
148.77676°
Altitude
540.582 km
Speed
7.593 km/s
True Right ascension
02h 03m 43s
True Declination
0° 00' 00"
Sunlit
Object was in full shadow at epoch
Visualization orbit readout
Latitude
Unknown
Longitude
Unknown
Altitude
Unknown
Speed
Unknown
Apparent Right ascension
Unknown
Apparent Declination
Unknown
Sunlit
N/A
Visualization observer readout
Local Sidereal Time
05:02:36
Azimuth
Unknown
Elevation
Unknown
Doppler factor
Unknown
Orbital elements
Apogee altitude
541.058 km
Perigee altitude
538.935 km
Semi-major axis
6,918.133 km
Eccentricity
0.00015
Inclination
53.2191°
RAAN
30.9303°
Arg. of periapsis
86.4628°
True anomaly
273.63636°
Mean anomaly
273.6539°
Eccentric anomaly
273.64513°
Mean motion
3.7719 °/min
Orbital period
95.44 mins
BSTAR
-0.00002482
Loading maneuver chart data...
Computing Atmospheric mass density...
Loading historical data...
Loading historical data...
Loading historical data...
Loading historical data...
Loading historical data...
Loading historical data...
Loading historical data...

Documentation

Showing up to 5 results
|